Content
SEND FEEDBACK

Daily
Averages
Monthly
Summary
United States of America

ROHNERVILLE, CALIFORNIA


Home > North America > United States > California
Elevation: 390 feet     Latitude: 40 33N     Longitude: 124 07W

WEATHER
 
SELECT A DAY
Number of Records: 68,254;   Date Range: 9/21/11 - 12/19/14
 
SHARE

PRINT THIS DATA

[ ← Previous Day ]
WEATHER ALMANAC - MAY 17, 2013
[ Next Day → ]
[ °C ]   °F
Weather ElementAverageHighLow
Temperature53.3 °F60.8 °F (1:15 pm)48.2 °F (9:35 pm)
Dewpoint48.1 °F50 °F (12:55 am)44.6 °F (12:15 pm)
Humidity84.1 %100 % (12:55 am)55 % (1:15 pm)
Barometer30.09 in30.18 in (11:15 pm)30.04 in (1:55 am)
Wind Speed7.3 mph15 mph (4:15 pm)
Wind Gust20.7 mph (3:15 pm)
Weather ElementAverage
Visibility8.1 mi
Wind DirectionW (264.9 °)

Weather ElementTotal
Precipitation---
Heating Degree Days10.5 (Base 65)
Growing Degree Days4.5 (Base 50)
Averaged from 71 records on May 17, 2013
WEATHER CONDITIONS BREAKOUT
WIND DIRECTION BREAKOUT
WEATHER BY HOUR - MAY 17, 2013
[ °C ]   °F
Local TimeTemperatureDewpointHumidityBarometerVisibilityWind DirectionWind SpeedGust SpeedPrecipitationEventsConditions
12:35 AM50.0 °F48.2 °F94 %30.06 in10.0 miCalmOvercast
12:55 AM50.0 °F50.0 °F100 %30.05 in10.0 miCalmOvercast
1:15 AM50.0 °F50.0 °F100 %30.05 in9.0 miCalmOvercast
1:35 AM50.0 °F50.0 °F100 %30.05 in8.0 miCalmOvercast
1:55 AM50.0 °F50.0 °F100 %30.04 in6.0 miCalmOvercast
2:15 AM50.0 °F50.0 °F100 %30.04 in6.0 miCalmOvercast
2:35 AM50.0 °F50.0 °F100 %30.04 in5.0 miCalmOvercast
2:55 AM50.0 °F50.0 °F100 %30.04 in5.0 miCalmOvercast
3:15 AM50.0 °F50.0 °F100 %30.04 in4.0 miCalmOvercast
3:35 AM50.0 °F50.0 °F100 %30.04 in2.0 miCalmOvercast
3:55 AM50.0 °F50.0 °F100 %30.04 in3.0 miCalmOvercast
4:15 AM50.0 °F50.0 °F100 %30.04 in1.5 miNW (310°)3.5 mphOvercast
4:35 AM50.0 °F50.0 °F100 %30.04 in1.2 miNW (320°)5.8 mphOvercast
4:55 AM50.0 °F50.0 °F100 %30.04 in0.8 miNW (320°)4.6 mphOvercast
5:15 AM50.0 °F50.0 °F100 %30.04 in1.8 miNW (310°)4.6 mphOvercast
5:35 AM50.0 °F50.0 °F100 %30.04 in1.0 miNW (310°)5.8 mphOvercast
5:55 AM50.0 °F50.0 °F100 %30.05 in4.0 miNW (320°)4.6 mphOvercast
6:15 AM50.0 °F50.0 °F100 %30.05 in1.8 miNW (310°)5.8 mphOvercast
6:35 AM50.0 °F50.0 °F100 %30.05 in2.5 miNW (310°)6.9 mphOvercast
6:55 AM50.0 °F50.0 °F100 %30.05 in5.0 miNW (310°)4.6 mphOvercast
7:15 AM50.0 °F50.0 °F100 %30.05 in7.0 miNW (310°)3.5 mphOvercast
7:35 AM50.0 °F50.0 °F100 %30.06 in10.0 miNW (310°)4.6 mphOvercast
7:55 AM51.8 °F50.0 °F94 %30.06 in10.0 miWNW (300°)4.6 mphOvercast
8:15 AM51.8 °F50.0 °F94 %30.06 in10.0 miWNW (290°)3.5 mphOvercast
8:35 AM51.8 °F50.0 °F94 %30.06 in10.0 miWNW (290°)5.8 mphOvercast
8:55 AM53.6 °F50.0 °F88 %30.07 in10.0 miWNW (300°)6.9 mphOvercast
9:15 AM53.6 °F50.0 °F88 %30.07 in10.0 miNW (310°)5.8 mphOvercast
9:35 AM53.6 °F48.2 °F82 %30.07 in10.0 miWNW (300°)5.8 mphOvercast
9:55 AM55.4 °F48.2 °F77 %30.07 in10.0 miNW (320°)6.9 mphOvercast
10:15 AM55.4 °F48.2 °F77 %30.08 in10.0 miNW (310°)6.9 mphOvercast
10:35 AM55.4 °F46.4 °F72 %30.08 in10.0 miNNW (330°)9.2 mphOvercast
10:55 AM55.4 °F46.4 °F72 %30.09 in10.0 miNNW (330°)10.4 mphOvercast
11:15 AM55.4 °F46.4 °F72 %30.09 in10.0 miNNW (330°)10.4 mphOvercast
11:35 AM57.2 °F46.4 °F67 %30.09 in10.0 miNNW (330°)11.5 mph17.3 mphOvercast
11:55 AM57.2 °F46.4 °F67 %30.09 in10.0 miNNW (330°)12.7 mphOvercast
12:15 PM59.0 °F44.6 °F59 %30.10 in10.0 miWNW (300°)10.4 mph16.1 mphMostly Cloudy
12:35 PM59.0 °F44.6 °F59 %30.09 in10.0 miNW (320°)12.7 mph16.1 mphOvercast
12:55 PM59.0 °F44.6 °F59 %30.09 in10.0 miNNW (330°)13.8 mph17.3 mphMostly Cloudy
1:15 PM60.8 °F44.6 °F55 %30.10 in10.0 miNNW (330°)11.5 mph17.3 mphPartly Cloudy
1:35 PM59.0 °F46.4 °F63 %30.10 in10.0 miNNW (330°)12.7 mph17.3 mphMostly Cloudy
1:55 PM59.0 °F46.4 °F63 %30.10 in10.0 miWNW (300°)12.7 mph18.4 mphOvercast
2:15 PM59.0 °F46.4 °F63 %30.11 in10.0 miWNW (300°)13.8 mphOvercast
2:35 PM59.0 °F46.4 °F63 %30.11 in10.0 miNNW (330°)11.5 mphMostly Cloudy
2:55 PM59.0 °F46.4 °F63 %30.11 in10.0 miNNW (330°)13.8 mph19.6 mphMostly Cloudy
3:15 PM59.0 °F48.2 °F67 %30.10 in10.0 miNW (310°)12.7 mph20.7 mphMostly Cloudy
3:35 PM59.0 °F48.2 °F67 %30.10 in10.0 miNW (310°)13.8 mph19.6 mphMostly Cloudy
3:55 PM60.8 °F48.2 °F63 %30.10 in10.0 miWNW (300°)13.8 mph17.3 mphMostly Cloudy
4:15 PM59.0 °F46.4 °F63 %30.11 in10.0 miNNW (330°)15.0 mphMostly Cloudy
4:35 PM59.0 °F46.4 °F63 %30.12 in10.0 miNW (320°)13.8 mphOvercast
4:55 PM57.2 °F44.6 °F63 %30.13 in10.0 miNW (320°)12.7 mphOvercast
5:15 PM57.2 °F46.4 °F67 %30.13 in10.0 miNW (310°)11.5 mph16.1 mphOvercast
5:35 PM57.2 °F46.4 °F67 %30.13 in10.0 miNW (320°)13.8 mphOvercast
5:55 PM57.2 °F46.4 °F67 %30.13 in10.0 miNNW (330°)11.5 mphOvercast
6:15 PM55.4 °F44.6 °F67 %30.12 in10.0 miNNW (340°)11.5 mphOvercast
6:35 PM55.4 °F46.4 °F72 %30.12 in10.0 miNW (320°)10.4 mphScattered Clouds
6:55 PM57.2 °F46.4 °F67 %30.12 in10.0 miNNW (330°)11.5 mphClear
7:15 PM55.4 °F46.4 °F72 %30.12 in10.0 miNNW (330°)9.2 mphScattered Clouds
7:35 PM55.4 °F48.2 °F77 %30.12 in10.0 miNW (310°)9.2 mphPartly Cloudy
7:55 PM53.6 °F46.4 °F77 %30.12 in10.0 miNW (310°)9.2 mphClear
8:15 PM51.8 °F48.2 °F88 %30.13 in10.0 miNW (310°)8.1 mphClear
8:35 PM50.0 °F48.2 °F94 %30.13 in10.0 miNW (310°)8.1 mphClear
8:55 PM50.0 °F48.2 °F94 %30.14 in10.0 miNW (310°)8.1 mphClear
9:15 PM50.0 °F48.2 °F94 %30.15 in10.0 miWNW (300°)6.9 mphClear
9:35 PM48.2 °F48.2 °F100 %30.15 in10.0 miWNW (300°)5.8 mphClear
9:55 PM48.2 °F48.2 °F100 %30.16 in10.0 miWNW (300°)5.8 mphClear
10:15 PM48.2 °F48.2 °F100 %30.16 in10.0 miNW (310°)5.8 mphClear
10:35 PM48.2 °F48.2 °F100 %30.17 in10.0 miWNW (290°)6.9 mphClear
10:55 PM48.2 °F48.2 °F100 %30.17 in10.0 miNW (310°)5.8 mphClear
11:15 PM48.2 °F48.2 °F100 %30.18 in10.0 miNW (310°)4.6 mphPartly Cloudy
11:35 PM48.2 °F48.2 °F100 %30.18 in3.0 miWNW (290°)4.6 mphPartly Cloudy
11:55 PM48.2 °F48.2 °F100 %30.18 in0.5 miWNW (300°)3.5 mphOvercast
Hourly data recorded from KFOT, located miles away from Rohnerville, California







STORIES FROM OUR PARTNERS